Location: Detroit
(42.3310°N, 83.0460°W)
Time: 00:46:47
(UTC-04:00)

A-11 Canister half - Pass Details

Date: 07 February 2023
Orbit: 1526 x 1682 km, 47.3° (Epoch: 20 March)

Event Time Altitude Azimuth Distance (km) Brightness Sun altitude
Rises 10:31:28 0° 294° (WNW) 4,691 11.1 24.6°
Reaches altitude 10° 10:34:28 10° 294° (WNW) 3,717 10.6 24.9°
Maximum altitude 10:43:53 82° 209° (SSW) 1,583 9.6 25.9°
Drops below altitude 10° 10:53:35 10° 123° (ESE) 3,818 12.3 26.8°
Sets 10:56:43 0° 123° (ESE) 4,823 12.6 27.1°
